Portada
METAR-TAF:

METAR-TAF

Aeroports :

Morrisville-Stowe State Airport

Morrisville, Vermont, Estats Units d'Amèrica

latitud: 44-32-10N, longitud: 072-36-58W, altitud: 223 m

Observació

L'informe es va fer fa 35 minuts, a les 19:54 UTC
Vent 6 kt amb direcció variable
Temperatura 19°C
Humitat 52%
Pressió 1017 hPa
Visibilitat: 16.1 km
Cel ennuvolat a una alçada de 10000 ft

METAR: KMVL 151954Z AUTO VRB06KT 10SM BKN100 19/09 A3004 RMK AO2 SLP175 T01890089

Hora: 16:29 (20:29 UTC)


TAF: manca

Observacions i pronòstics meteorològics de més de 4000 aeroports (METAR i TAF).

Les estacions disponibles són els punts grocs i vermells al mapa.

Posi el ratolí al punt desitjat per veure el nom de l'estació.

Feu clic per veure les observacions i els pronòstics meteorològics.

Per canviar el mapa: feu clic els botons verds amb una creu de color negre per apropar; al botó verd amb un guió per allunyar la imatge; o en les fletxes verdes per a mapes adjacents.


METAR-TAF: